To NAV CANADA Home Page Login to a new session Search on AWWS site Disclaimer Vers la page française équivalente Tips FAQ What's new on the site To the Forecasts and Observations / NOTAM section To "File a Flight Plan" website Publications and other links Update of the User's profile FIC Telephone Numbers My Weather Data Folder Route Weather Data Regional Weather Data Local Weather Data To the Forecasts and Observations / NOTAM section
Request Generated 04/22/2019 at 12:52:39 UTC . Weather information available at that time is displayed.

METAR/TAF

FLIN FLON/MB    (show WxCam)

METAR CYFO 221200Z VRB02KT 15SM FEW100 BKN200 M03/M03 A3027 RMK AC2CI3 SLP267=
METAR CYFO 221100Z VRB02KT 15SM SCT200 M02/M03 A3027 RMK CI3 SNW CVR/ NIL SLP267=
LWIS CYFO 221000Z AUTO 00000KT M02/M03 A3025=

CYFO - No TAF is issued for this station

Your time UTC time
Weather data provided by Environment Canada and NAV CANADA